[[{"header":{"parameterUnit":"m.s-1","parameterCategory":2,"la1":30.2992,"la2":30.254,"lo1":-89.0895,"lo2":-89.0443,"dy":0.0025,"dx":0.0025,"nx":19,"ny":19,"refTime":"2026-03-21T09:00:00:Z","depth":"0","parameterNumber":2,"parameterNumberName":"U-component_of_CURRENTS"},"data":[0,0,0,0.0423,0.0425,0.0619,0.062,0.0811,0.0812,0,0,0,0,0,0,0,0,0,0,0,0.0378,0.0379,0.0422,0.0426,0.0618,0.062,0.0811,0.0812,0,0,0,0,0,0,0,0,0,0,0,0.0377,0.0378,0.038,0.0426,0.0618,0.062,0.081,0.0689,0,0,0,0,0,0,0,0,0,0,0.0513,0.0472,0.0378,0.038,0.0427,0.0618,0.062,0.0684,0.0696,0.0694,0,0.0717,0,0.0739,0.0819,0.082,0,0,0,0.0468,0.0462,0.0493,0.038,0.0428,0.0617,0.0544,0.0692,0.0705,0.071,0.072,0.0727,0.0742,0.082,0.0821,0.1003,0.1004,0,0,0.0458,0.0436,0.0484,0.0502,0.0467,0.0537,0.0549,0.0701,0.0721,0.072,0.0731,0.0745,0.0821,0.0822,0.1002,0.1003,0,0,0,0.0398,0.0428,0.0459,0.0494,0.0517,0.0541,0.0555,0.0716,0.072,0.0733,0.0747,0.0821,0.0823,0.1,0.1002,0.1108,0,0,0,0.0394,0.039,0.0454,0.0447,0.0514,0.0626,0.0566,0.0711,0.0728,0.0746,0.0822,0.0824,0.0999,0.1001,0.1102,0.1134,0,0,0,0.0371,0.0388,0.0403,0.0444,0.0504,0.0624,0.0642,0.0717,0.0733,0.082,0.0824,0.0998,0.1001,0.1097,0.1126,0.1307,0,0,0,0.0353,0.0402,0.0403,0.0481,0.0501,0.0648,0.0641,0.0768,0.0851,0.0822,0.0999,0.1002,0.1095,0.1121,0.13,0.1366,0.1403,0,0,0.0404,0.0408,0.0458,0.0463,0.0588,0.0625,0.0797,0.089,0.0888,0.0949,0.0955,0.1104,0.1125,0.1306,0.1523,0.1556,0,0,0,0.0469,0.0505,0.055,0.062,0.0704,0.083,0.0912,0.0962,0.107,0.0938,0.113,0.114,0.1251,0.1277,0.1304,0.1322,0.1015,0.1014,0.1014,0.0494,0.0552,0.0656,0.0749,0.0839,0.0984,0.1105,0.1183,0.1157,0.1226,0.1246,0.1476,0.1503,0.1525,0.1542,0.1276,0.1277,0.1277,0.1277,0.0588,0.0669,0.0733,0.085,0.0956,0.109,0.1276,0.1319,0.149,0.1385,0.1491,0.1408,0.156,0.1568,0.1285,0.1283,0.1283,0.1282,0.1281,0.0631,0.0684,0.0736,0.0873,0.1018,0.1163,0.1358,0.147,0.1584,0.1681,0.1766,0.1764,0.1759,0.176,0.1761,0.1762,0.1763,0.1763,0.1764,0.0659,0.0722,0.0792,0.0916,0.1004,0.1167,0.1411,0.1571,0.182,0.1896,0.1898,0.1852,0.1625,0.1592,0.1779,0.1776,0.1774,0.1773,0.1772,0.0772,0.0736,0.0851,0.0921,0.1114,0.1248,0.1466,0.1819,0.2019,0.2182,0.2197,0.2048,0.2036,0.2013,0.1991,0.2271,0.2271,0.2271,0.2271,0.0797,0.0803,0.092,0.1038,0.1184,0.1317,0.1572,0.1842,0.2207,0.2343,0.2413,0.2292,0.2271,0.2264,0.2235,0.2213,0.2544,0.2544,0.2544,0.085,0.0874,0.096,0.106,0.1226,0.1369,0.1542,0.173,0.2212,0.2553,0.2439,0.2427,0.2236,0.2201,0.2165,0.2123,0.2076,0,0]},{"header":{"parameterUnit":"m.s-1","parameterCategory":2,"la1":30.2992,"la2":30.254,"lo1":-89.0895,"lo2":-89.0443,"dy":0.0025,"dx":0.0025,"nx":19,"ny":19,"refTime":"2026-03-21T09:00:00:Z","depth":"0","parameterNumber":3,"parameterNumberName":"V-component_of_CURRENTS"},"data":[0,0,0,0.0256,0.0256,0.0336,0.0337,0.0467,0.0468,0,0,0,0,0,0,0,0,0,0,0,0.0243,0.0243,0.0256,0.0256,0.0336,0.0337,0.0467,0.0468,0,0,0,0,0,0,0,0,0,0,0,0.0243,0.0243,0.0243,0.0257,0.0336,0.0337,0.0467,0.0408,0,0,0,0,0,0,0,0,0,0,0.033,0.0319,0.0243,0.0243,0.0257,0.0336,0.0337,0.0405,0.0411,0.0428,0,0.0429,0,0.043,0.0474,0.0474,0,0,0,0.029,0.0314,0.0309,0.0243,0.0257,0.0336,0.031,0.0408,0.0416,0.0437,0.0431,0.0435,0.0432,0.0475,0.0475,0.0617,0.0618,0,0,0.0286,0.0288,0.0303,0.0313,0.0263,0.0307,0.0312,0.0413,0.043,0.0431,0.0438,0.0435,0.0475,0.0476,0.0616,0.0617,0,0,0,0.025,0.0285,0.0279,0.0308,0.0308,0.0308,0.0314,0.0427,0.0417,0.0439,0.0436,0.0476,0.0477,0.0615,0.0616,0.0704,0,0,0,0.0249,0.0262,0.0277,0.0284,0.0306,0.0368,0.0326,0.0411,0.0421,0.0435,0.0476,0.0478,0.0614,0.0616,0.07,0.0765,0,0,0,0.0242,0.0262,0.026,0.0283,0.0297,0.0365,0.0364,0.0414,0.0418,0.0475,0.0478,0.0614,0.0616,0.0696,0.0757,0.0863,0,0,0,0.0258,0.0299,0.0261,0.0334,0.0296,0.0411,0.0364,0.0462,0.0523,0.0476,0.0614,0.0616,0.0695,0.0753,0.0858,0.0895,0.0924,0,0,0.0325,0.0308,0.0358,0.0325,0.0436,0.0403,0.0547,0.0587,0.0553,0.0586,0.059,0.0701,0.0757,0.0862,0.1012,0.1037,0,0,0,0.0392,0.0431,0.0464,0.0514,0.0556,0.0633,0.0654,0.0651,0.0684,0.0586,0.0718,0.0751,0.0815,0.0826,0.0846,0.0714,0.0626,0.0625,0.0625,0.0495,0.0523,0.0629,0.0681,0.0754,0.0801,0.0852,0.0846,0.0793,0.0808,0.0834,0.0992,0.1004,0.102,0.0883,0.0833,0.0833,0.0833,0.0833,0.0639,0.0721,0.076,0.0865,0.091,0.1019,0.1057,0.1016,0.104,0.0944,0.1001,0.0931,0.1048,0.0893,0.0839,0.0838,0.0838,0.0837,0.0837,0.0742,0.0783,0.0828,0.0952,0.1087,0.1154,0.127,0.1227,0.1166,0.1188,0.1215,0.1213,0.107,0.1222,0.1222,0.1223,0.1224,0.1224,0.1225,0.0817,0.087,0.0949,0.107,0.1162,0.1306,0.1381,0.1412,0.1418,0.1348,0.1348,0.1118,0.1112,0.1089,0.1237,0.1235,0.1233,0.1232,0.1231,0.0974,0.0949,0.1075,0.1151,0.1353,0.1539,0.1587,0.1675,0.1663,0.17,0.1361,0.1432,0.142,0.1401,0.1386,0.1603,0.1603,0.1603,0.1603,0.1041,0.1052,0.1202,0.1348,0.1517,0.1672,0.1847,0.1882,0.1703,0.1539,0.1438,0.1312,0.1303,0.1274,0.1258,0.1235,0.141,0.1409,0.1408,0.1128,0.1161,0.129,0.1419,0.1623,0.181,0.1981,0.2007,0.1618,0.1383,0.1252,0.1261,0.1049,0.1046,0.0971,0.0961,0.0912,0,0]}],[{"header":{"parameterUnit":"m.s-1","parameterCategory":2,"la1":30.2992,"la2":30.254,"lo1":-89.0895,"lo2":-89.0443,"dy":0.0025,"dx":0.0025,"nx":19,"ny":19,"refTime":"2026-03-21T09:00:00:Z","depth":"2","parameterNumber":2,"parameterNumberName":"U-component_of_CURRENTS"},"data":[0,0,0,-0.0966,-0.0967,-0.1012,-0.1012,-0.0951,-0.095,0,0,0,0,0,0,0,0,0,0,0,-0.0958,-0.0958,-0.0966,-0.0968,-0.1012,-0.1012,-0.0951,-0.095,0,0,0,0,0,0,0,0,0,0,0,-0.0957,-0.0958,-0.0959,-0.0968,-0.1012,-0.1012,-0.0952,-0.0946,0,0,0,0,0,0,0,0,0,0,-0.0916,-0.0938,-0.0958,-0.0959,-0.0968,-0.1012,-0.1012,-0.0947,-0.0946,-0.09,0,-0.0922,0,-0.0932,-0.0944,-0.0944,0,0,0,-0.0961,-0.0939,-0.0941,-0.0959,-0.0969,-0.1012,-0.099,-0.0947,-0.0946,-0.0898,-0.0921,-0.092,-0.0931,-0.0944,-0.0943,-0.0765,-0.0764,0,0,-0.0958,-0.0968,-0.0942,-0.0941,-0.0997,-0.0989,-0.0991,-0.0948,-0.0957,-0.0921,-0.0919,-0.093,-0.0943,-0.0942,-0.0767,-0.0765,0,0,0,-0.0956,-0.0966,-0.0972,-0.0943,-0.0959,-0.099,-0.0993,-0.0959,-0.0959,-0.0918,-0.0929,-0.0943,-0.0941,-0.0768,-0.0766,-0.0605,0,0,0,-0.0954,-0.0965,-0.0971,-0.0977,-0.0961,-0.0978,-0.1005,-0.0963,-0.0958,-0.0929,-0.0943,-0.0941,-0.0769,-0.0767,-0.0612,-0.0549,0,0,0,-0.0952,-0.0965,-0.0974,-0.0978,-0.0999,-0.0979,-0.0978,-0.0962,-0.0964,-0.0944,-0.094,-0.077,-0.0767,-0.0619,-0.056,-0.0675,0,0,0,-0.0954,-0.0955,-0.0974,-0.0973,-0.0998,-0.0979,-0.0979,-0.0973,-0.0959,-0.0942,-0.0769,-0.0766,-0.0621,-0.0567,-0.0678,-0.0588,-0.0565,0,0,-0.0943,-0.0954,-0.0947,-0.0965,-0.094,-0.0971,-0.0868,-0.0861,-0.0884,-0.0778,-0.0775,-0.061,-0.0561,-0.0675,-0.0415,-0.0397,0,0,0,-0.0934,-0.0932,-0.0925,-0.0927,-0.0921,-0.084,-0.0853,-0.0836,-0.0745,-0.0863,-0.0594,-0.0568,-0.0647,-0.0598,-0.0583,-0.0752,-0.0752,-0.0753,-0.0753,-0.0928,-0.0916,-0.0891,-0.0868,-0.0856,-0.0743,-0.0654,-0.0612,-0.0653,-0.0602,-0.0424,-0.0377,-0.0313,-0.0304,-0.0408,-0.0407,-0.0406,-0.0406,-0.0406,-0.0879,-0.0858,-0.0848,-0.08,-0.0717,-0.0619,-0.0499,-0.0443,-0.0308,-0.0337,-0.0423,-0.0409,-0.0278,-0.0392,-0.0395,-0.0397,-0.0398,-0.0399,-0.04,-0.0867,-0.0849,-0.0815,-0.0712,-0.0612,-0.0498,-0.0277,-0.0115,-0.0237,-0.0124,-0.0244,-0.0246,-0.0373,-0.0222,-0.0223,-0.0223,-0.0223,-0.0223,-0.0223,-0.0849,-0.0825,-0.0714,-0.0613,-0.0563,-0.039,-0.0126,-0.0091,-0.0096,-0.0076,-0.0078,-0.032,-0.0326,-0.0367,-0.0225,-0.0225,-0.0224,-0.0224,-0.0224,-0.0808,-0.0782,-0.0621,-0.0553,-0.0422,-0.0321,-0.0164,-0.0052,-0.0038,-0.0132,-0.0115,-0.0116,-0.0205,-0.0216,-0.0256,-0.0096,-0.0096,-0.0096,-0.0096,-0.0781,-0.0751,-0.06,-0.053,-0.0413,-0.0341,-0.0181,-0.0018,-0.0014,0.0025,0.0019,0.0069,0.0063,-0.0013,-0.0029,-0.0067,0.0142,0.0143,0.0143,-0.0728,-0.0709,-0.0626,-0.0558,-0.0507,-0.0389,-0.0162,0.0187,0.0294,0.0147,0.0009,-0.007,-0.0008,-0.0015,-0.0148,-0.0166,-0.0235,0,0]},{"header":{"parameterUnit":"m.s-1","parameterCategory":2,"la1":30.2992,"la2":30.254,"lo1":-89.0895,"lo2":-89.0443,"dy":0.0025,"dx":0.0025,"nx":19,"ny":19,"refTime":"2026-03-21T09:00:00:Z","depth":"2","parameterNumber":3,"parameterNumberName":"V-component_of_CURRENTS"},"data":[0,0,0,-0.0601,-0.0598,-0.0441,-0.044,-0.0161,-0.0158,0,0,0,0,0,0,0,0,0,0,0,-0.0646,-0.0645,-0.0602,-0.0598,-0.0441,-0.044,-0.0161,-0.0158,0,0,0,0,0,0,0,0,0,0,0,-0.0647,-0.0646,-0.0644,-0.0598,-0.0441,-0.044,-0.0162,-0.0296,0,0,0,0,0,0,0,0,0,0,-0.0457,-0.0525,-0.0646,-0.0644,-0.0597,-0.0441,-0.0439,-0.0303,-0.0287,-0.0215,0,-0.0192,0,-0.0177,-0.0139,-0.0138,0,0,0,-0.0581,-0.0539,-0.049,-0.0644,-0.0596,-0.0441,-0.0507,-0.0295,-0.0277,-0.0194,-0.0188,-0.0179,-0.0172,-0.0137,-0.0136,-0.0002,-0.0002,0,0,-0.059,-0.0617,-0.0503,-0.0479,-0.0554,-0.0512,-0.0502,-0.0285,-0.0267,-0.0188,-0.0172,-0.0167,-0.0135,-0.0133,-0.0001,-0.0002,0,0,0,-0.0626,-0.0624,-0.0582,-0.049,-0.0472,-0.0508,-0.0497,-0.0277,-0.0261,-0.017,-0.0164,-0.0134,-0.013,-0.0,-0.0001,-0.0022,0,0,0,-0.0631,-0.0646,-0.0586,-0.06,-0.0477,-0.0386,-0.0494,-0.0276,-0.0252,-0.0165,-0.0134,-0.0128,0.0,-0.0001,-0.0019,-0.001,0,0,0,-0.0654,-0.0649,-0.063,-0.0602,-0.0542,-0.039,-0.0361,-0.0271,-0.0248,-0.0138,-0.0127,0.0001,-0.0001,-0.0018,-0.0008,-0.0076,0,0,0,-0.0688,-0.0661,-0.063,-0.0602,-0.0544,-0.0481,-0.0363,-0.0273,-0.0186,-0.0132,0.0,-0.0001,-0.0017,-0.0007,-0.0074,-0.0133,-0.0148,0,0,-0.0678,-0.0661,-0.0647,-0.0616,-0.0579,-0.0502,-0.0417,-0.0237,-0.0189,-0.006,-0.0057,-0.002,-0.0008,-0.0076,-0.0222,-0.0234,0,0,0,-0.0661,-0.0649,-0.0635,-0.0601,-0.0551,-0.0459,-0.0334,-0.0288,-0.0179,-0.0148,-0.0046,-0.0038,-0.008,-0.0112,-0.0122,-0.0009,-0.0008,-0.0008,-0.0008,-0.0667,-0.065,-0.0631,-0.0599,-0.056,-0.0408,-0.0344,-0.0256,-0.0194,-0.019,-0.0074,-0.0163,-0.0198,-0.0206,-0.0107,-0.0107,-0.0107,-0.0107,-0.0107,-0.0664,-0.0661,-0.0631,-0.0591,-0.0505,-0.0403,-0.0318,-0.025,-0.0205,-0.0162,-0.0203,-0.0155,-0.0219,-0.011,-0.0109,-0.0109,-0.0109,-0.0109,-0.0108,-0.0683,-0.0683,-0.0635,-0.0546,-0.0467,-0.0353,-0.0219,-0.0129,-0.0228,-0.0219,-0.0271,-0.0271,-0.017,-0.0238,-0.0239,-0.0239,-0.0239,-0.0239,-0.0239,-0.072,-0.0689,-0.059,-0.0509,-0.0456,-0.0311,-0.0149,-0.0171,-0.0258,-0.0296,-0.0298,-0.0207,-0.0203,-0.018,-0.0244,-0.0243,-0.0242,-0.0242,-0.0242,-0.0747,-0.0688,-0.0557,-0.0487,-0.0397,-0.0345,-0.0245,-0.0287,-0.0329,-0.0479,-0.0375,-0.0371,-0.0374,-0.0366,-0.0348,-0.0452,-0.0452,-0.0452,-0.0452,-0.0756,-0.0718,-0.0581,-0.0518,-0.0448,-0.0416,-0.0421,-0.0422,-0.0494,-0.0497,-0.0495,-0.0466,-0.0458,-0.0463,-0.0453,-0.0435,-0.0561,-0.0561,-0.0561,-0.0747,-0.0714,-0.0638,-0.0562,-0.0559,-0.0502,-0.047,-0.0362,-0.0405,-0.0561,-0.0464,-0.0469,-0.0419,-0.0409,-0.0408,-0.0395,-0.0363,0,0]}],[{"header":{"parameterUnit":"m.s-1","parameterCategory":2,"la1":30.2992,"la2":30.254,"lo1":-89.0895,"lo2":-89.0443,"dy":0.0025,"dx":0.0025,"nx":19,"ny":19,"refTime":"2026-03-21T09:00:00:Z","depth":"4","parameterNumber":2,"parameterNumberName":"U-component_of_CURRENTS"},"data":[0,0,0,-0.0395,-0.0395,-0.0403,-0.0403,-0.0458,-0.0459,0,0,0,0,0,0,0,0,0,0,0,-0.0392,-0.0392,-0.0395,-0.0395,-0.0403,-0.0403,-0.0458,-0.0459,0,0,0,0,0,0,0,0,0,0,0,-0.0392,-0.0392,-0.0393,-0.0395,-0.0403,-0.0403,-0.0458,-0.0438,0,0,0,0,0,0,0,0,0,0,-0.0423,-0.0412,-0.0392,-0.0393,-0.0395,-0.0403,-0.0403,-0.0437,-0.0439,-0.0471,0,-0.0481,0,-0.0479,-0.0465,-0.0465,0,0,0,-0.0384,-0.0409,-0.0422,-0.0393,-0.0396,-0.0403,-0.0396,-0.0438,-0.0441,-0.0475,-0.0482,-0.0483,-0.048,-0.0466,-0.0466,-0.0527,-0.0527,0,0,-0.0383,-0.0383,-0.0419,-0.0424,-0.0411,-0.0396,-0.0397,-0.0439,-0.0444,-0.0482,-0.0484,-0.048,-0.0466,-0.0467,-0.0527,-0.0527,0,0,0,-0.039,-0.0383,-0.0393,-0.0422,-0.0424,-0.0397,-0.0397,-0.0441,-0.0448,-0.0485,-0.0481,-0.0467,-0.0468,-0.0527,-0.0527,-0.0485,0,0,0,-0.0389,-0.0388,-0.0393,-0.0391,-0.0423,-0.0425,-0.0399,-0.0444,-0.0449,-0.0481,-0.0467,-0.0469,-0.0527,-0.0527,-0.0486,-0.0474,0,0,0,-0.0389,-0.0387,-0.0394,-0.0391,-0.0401,-0.0424,-0.0432,-0.0445,-0.0448,-0.0465,-0.0469,-0.0527,-0.0527,-0.0487,-0.0476,-0.0446,0,0,0,-0.038,-0.0385,-0.0394,-0.0401,-0.0401,-0.0403,-0.0431,-0.0435,-0.0446,-0.0467,-0.0527,-0.0527,-0.0487,-0.0477,-0.0447,-0.0392,0,0,0,-0.0377,-0.0384,-0.0389,-0.0398,-0.04,-0.0401,-0.0397,-0.0427,-0.0461,-0.0515,-0.0516,-0.0486,-0.0476,-0.0446,-0.0397,0,0,0,0,-0.0382,-0.0384,-0.0387,-0.0395,-0.0401,-0.0396,-0.0412,-0.0423,-0.0456,-0.0471,-0.0499,-0.0495,-0.0477,-0.0449,-0.0528,-0.0528,-0.0528,-0.0528,-0.0528,-0.037,-0.0378,-0.038,-0.0387,-0.0389,-0.0394,-0.039,-0.0414,-0.0445,-0.0453,-0.0469,-0.0433,-0.0404,-0.0478,-0.0477,-0.0477,-0.0477,-0.0477,-0.0477,-0.0359,-0.0359,-0.037,-0.0372,-0.0378,-0.0379,-0.0388,-0.0397,-0.0406,-0.0441,-0.0425,-0.0419,-0.0473,-0.0474,-0.0474,-0.0475,-0.0475,-0.0475,-0.0475,-0.035,-0.0348,-0.0358,-0.0362,-0.0364,-0.0368,-0.036,-0.0376,-0.0381,-0.0368,-0.034,-0.0405,-0.0397,-0.0359,-0.0359,-0.0359,-0.0358,-0.0358,-0.0358,-0.0331,-0.034,-0.0343,-0.0347,-0.0346,-0.0341,-0.0348,-0.0333,-0.0336,-0.0294,-0.0359,-0.0393,-0.0397,-0.0391,-0.0355,-0.0356,-0.0356,-0.0356,-0.0357,-0.0308,-0.0326,-0.0325,-0.0326,-0.0307,-0.0296,-0.0313,-0.0262,-0.0233,-0.0187,-0.0249,-0.0255,-0.0264,-0.0271,-0.0262,-0.0186,-0.0185,-0.0184,0,-0.0297,-0.0303,-0.0302,-0.0288,-0.0258,-0.026,-0.0206,-0.0188,-0.0171,-0.0165,-0.0229,-0.0302,-0.0306,-0.0322,-0.0327,-0.0318,0,0,0,-0.0282,-0.0289,-0.0277,-0.0269,-0.0226,-0.018,-0.0186,-0.0158,-0.0182,-0.0124,-0.0162,-0.0168,-0.0291,-0.0347,-0.0376,-0.0381,-0.0373,0,0]},{"header":{"parameterUnit":"m.s-1","parameterCategory":2,"la1":30.2992,"la2":30.254,"lo1":-89.0895,"lo2":-89.0443,"dy":0.0025,"dx":0.0025,"nx":19,"ny":19,"refTime":"2026-03-21T09:00:00:Z","depth":"4","parameterNumber":3,"parameterNumberName":"V-component_of_CURRENTS"},"data":[0,0,0,-0.0481,-0.0482,-0.0542,-0.0543,-0.0618,-0.0618,0,0,0,0,0,0,0,0,0,0,0,-0.0461,-0.0461,-0.0481,-0.0482,-0.0542,-0.0543,-0.0618,-0.0618,0,0,0,0,0,0,0,0,0,0,0,-0.0461,-0.0461,-0.0461,-0.0483,-0.0542,-0.0543,-0.0617,-0.0575,0,0,0,0,0,0,0,0,0,0,-0.0517,-0.0504,-0.0461,-0.0461,-0.0483,-0.0542,-0.0543,-0.0573,-0.0577,-0.0587,0,-0.0592,0,-0.0603,-0.0622,-0.0623,0,0,0,-0.0491,-0.05,-0.0506,-0.0461,-0.0483,-0.0542,-0.0518,-0.0575,-0.058,-0.0593,-0.0593,-0.0596,-0.0604,-0.0623,-0.0623,-0.0693,-0.0693,0,0,-0.0488,-0.0483,-0.0503,-0.0509,-0.0493,-0.0516,-0.052,-0.0579,-0.0587,-0.0593,-0.0598,-0.0606,-0.0623,-0.0624,-0.0692,-0.0693,0,0,0,-0.0472,-0.0481,-0.0487,-0.0506,-0.0515,-0.0517,-0.0522,-0.0585,-0.0584,-0.0599,-0.0607,-0.0624,-0.0624,-0.0692,-0.0693,-0.0709,0,0,0,-0.0471,-0.0471,-0.0485,-0.0485,-0.0514,-0.0553,-0.0527,-0.058,-0.0587,-0.0606,-0.0624,-0.0625,-0.0692,-0.0692,-0.0708,-0.0701,0,0,0,-0.0459,-0.0471,-0.0473,-0.0484,-0.0505,-0.0552,-0.0556,-0.0582,-0.0591,-0.0623,-0.0625,-0.0692,-0.0692,-0.0707,-0.07,-0.0685,0,0,0,-0.0459,-0.0478,-0.0473,-0.0506,-0.0504,-0.0556,-0.0556,-0.0603,-0.0633,-0.0624,-0.0692,-0.0693,-0.0707,-0.0699,-0.0685,-0.0633,0,0,0,-0.0484,-0.0482,-0.0503,-0.05,-0.0551,-0.0549,-0.0603,-0.0638,-0.0645,-0.0673,-0.0675,-0.0708,-0.07,-0.0685,-0.0676,0,0,0,0,-0.0512,-0.0524,-0.0541,-0.0569,-0.0597,-0.0621,-0.0651,-0.0657,-0.0689,-0.0663,-0.0718,-0.0712,-0.0702,-0.0672,-0.0696,-0.0696,-0.0696,-0.0696,-0.0696,-0.0544,-0.056,-0.0598,-0.062,-0.0649,-0.0679,-0.0693,-0.0705,-0.0716,-0.073,-0.0733,-0.0743,-0.0715,-0.075,-0.075,-0.075,-0.075,-0.075,-0.075,-0.0581,-0.0603,-0.0625,-0.0667,-0.0688,-0.0726,-0.0737,-0.0739,-0.0747,-0.0755,-0.0745,-0.0702,-0.0752,-0.0752,-0.0751,-0.0751,-0.0751,-0.0751,-0.0751,-0.0599,-0.061,-0.0638,-0.0685,-0.0721,-0.0743,-0.0748,-0.076,-0.0754,-0.0754,-0.0709,-0.0744,-0.0732,-0.0751,-0.0751,-0.0751,-0.0751,-0.0751,-0.0751,-0.0602,-0.0627,-0.0657,-0.0699,-0.0724,-0.0743,-0.0755,-0.0749,-0.075,-0.0711,-0.0754,-0.0743,-0.0743,-0.0731,-0.075,-0.075,-0.075,-0.075,-0.075,-0.0611,-0.0626,-0.0659,-0.0686,-0.0727,-0.073,-0.0743,-0.071,-0.0691,-0.0663,-0.0681,-0.0685,-0.0665,-0.0667,-0.0651,-0.0647,-0.0646,-0.0645,0,-0.061,-0.0621,-0.0659,-0.0689,-0.0706,-0.072,-0.0672,-0.0664,-0.0655,-0.0638,-0.0703,-0.0725,-0.0727,-0.0708,-0.0708,-0.0693,0,0,0,-0.0603,-0.0615,-0.0636,-0.0677,-0.0699,-0.0663,-0.0657,-0.0637,-0.0646,-0.0623,-0.063,-0.0634,-0.0734,-0.0746,-0.0724,-0.0724,-0.0704,0,0]}]]